STARLINK-5165 (54081 NORAD) Tracking and Keplerian Element Data

This shows tracking and keplerian element data for the satellite.

Feedback or suggestion? Click here.




ElementValue
Catalog54081
NameSTARLINK-5165
Epoch Orbit550
Epoch Day325.33334491
Epoch Year2022
RAAN350.895
Inclination53.2148
Eccentricity0.0003892
Argument of Perigee10.9684
Mean Anonmoly333.2634
Mean Motion15.73178239
Decay Rate0.00032161
L11 54081U 22136AG 22325.33334491 .00032161 00000+0 23284-3 0 9990
L22 54081 53.2148 350.8950 0003892 10.9684 333.2634 15.73178239 5503



Live tracking and technical data element details for STARLINK-5165 (NORAD 54081). STARLINK-5165 can be tracked NOW for your location showing map with azimuth and elevation plus other details from your city location.







IsCatalogInMostPopularTable: catalog: 54081, numindb: 1
Update: records affected: 1



GetName: 54081 STARLINK-5165

Hit Count: updated at: Fri, 09 Dec 2022 18:32:04 GMT